Honghu-2

operational
NORAD ID: 58555 Int'l Des: 2023-193 Owner: HONGQ Country: CN
LEOCIRCULARRETROGRADESSO

Über Honghu-2

Beschreibung wird geladen...

Live-Position

3D-Globus wird geladen...

Nächste Überflüge

Höhenverlauf

Altitude vs Time

uPlot chart will show altitude changes over time

Zweizeiliger Elementsatz

1 58555U 23193C 26061.14060010 .00301727 00000-0 13572-1 0 9992
2 58555 97.2759 54.8302 0038854 292.5845 67.1281 15.19096971 85729
Epoch: 2. März 2026 • Age: 31 hours

Aktueller Status

Höhe 544.5 km
Geschwindigkeit 7.58 km/s
Subsatellitenpunkt 65.81°N, 9.85°W
Startdatum 8. Dez. 2023
Alter 2.2 years
Typ other

Technische Details

Klassifizierung Payload
Masse 50.00 kg
Trockenmasse 50.00 kg
Gesamtmasse 50.00 kg
Länge 0.50 m
Durchmesser 0.30 m
Spannweite 1.00 m
Form Box + 2 pan
Hersteller CTYK
Bus-Typ HQ
Phasenstatus In Orbit
Besitzer/Staat HONGQ/CN

Große Konstellationen

Loading constellations...